TimeEDT,TemperatureF,Dew PointF,Humidity,Sea Level PressureIn,VisibilityMPH,Wind Direction,Wind SpeedMPH,Gust SpeedMPH,PrecipitationIn,Events,Conditions,WindDirDegrees,DateUTC
12:52 AM,64.0,57.9,80,30.15,10.0,WSW,3.5,-,N/A,,Partly Cloudy,250,2012-10-04 04:52:00
1:52 AM,64.0,55.9,75,30.15,10.0,West,4.6,-,N/A,,Clear,260,2012-10-04 05:52:00
2:52 AM,63.0,55.9,78,30.16,10.0,West,4.6,-,N/A,,Partly Cloudy,270,2012-10-04 06:52:00
3:19 AM,62.6,57.2,82,30.24,10.0,West,3.5,-,N/A,,Mostly Cloudy,260,2012-10-04 07:19:00
3:52 AM,63.0,55.9,78,30.16,10.0,West,4.6,-,N/A,,Overcast,260,2012-10-04 07:52:00
4:19 AM,62.6,55.4,77,30.25,10.0,West,4.6,-,N/A,,Scattered Clouds,280,2012-10-04 08:19:00
4:43 AM,62.6,55.4,77,30.25,10.0,West,4.6,-,N/A,,Mostly Cloudy,270,2012-10-04 08:43:00
4:52 AM,62.1,55.9,80,30.17,10.0,West,4.6,-,N/A,,Mostly Cloudy,270,2012-10-04 08:52:00
5:42 AM,60.8,55.4,82,30.28,10.0,West,5.8,-,N/A,,Scattered Clouds,270,2012-10-04 09:42:00
5:50 AM,60.8,57.2,88,30.28,10.0,West,4.6,-,N/A,,Mostly Cloudy,260,2012-10-04 09:50:00
5:51 AM,61.0,57.0,87,30.19,10.0,West,4.6,-,N/A,,Mostly Cloudy,260,2012-10-04 09:51:00
6:22 AM,60.8,57.2,88,30.28,10.0,West,4.6,-,N/A,,Overcast,270,2012-10-04 10:22:00
6:36 AM,60.8,55.4,82,30.29,10.0,West,6.9,-,N/A,,Overcast,270,2012-10-04 10:36:00
6:52 AM,60.1,55.9,86,30.22,10.0,West,6.9,-,N/A,,Overcast,280,2012-10-04 10:52:00
7:08 AM,60.8,55.4,82,30.30,10.0,West,6.9,-,N/A,,Scattered Clouds,260,2012-10-04 11:08:00
7:52 AM,60.1,55.0,83,30.22,10.0,West,5.8,-,N/A,,Partly Cloudy,270,2012-10-04 11:52:00
8:52 AM,60.1,54.0,80,30.24,10.0,West,5.8,-,N/A,,Partly Cloudy,280,2012-10-04 12:52:00
9:52 AM,61.0,54.0,78,30.26,10.0,West,4.6,-,N/A,,Scattered Clouds,280,2012-10-04 13:52:00
10:52 AM,64.0,53.1,67,30.25,10.0,WNW,6.9,-,N/A,,Partly Cloudy,290,2012-10-04 14:52:00
11:39 AM,66.2,51.8,60,30.32,10.0,NW,6.9,16.1,N/A,,Mostly Cloudy,310,2012-10-04 15:39:00
11:52 AM,64.9,52.0,63,30.24,10.0,Variable,4.6,-,N/A,,Mostly Cloudy,0,2012-10-04 15:52:00
12:17 PM,64.4,50.0,59,30.32,10.0,NW,9.2,-,N/A,,Mostly Cloudy,310,2012-10-04 16:17:00
12:52 PM,66.9,50.0,54,30.24,10.0,WNW,9.2,-,N/A,,Overcast,300,2012-10-04 16:52:00
1:52 PM,69.1,51.1,53,30.21,10.0,West,8.1,-,N/A,,Clear,280,2012-10-04 17:52:00
2:52 PM,71.1,50.0,47,30.19,10.0,Variable,5.8,-,N/A,,Partly Cloudy,0,2012-10-04 18:52:00
3:52 PM,69.1,48.9,49,30.20,10.0,NW,8.1,-,N/A,,Mostly Cloudy,310,2012-10-04 19:52:00
4:52 PM,70.0,48.0,46,30.20,10.0,West,9.2,18.4,N/A,,Clear,270,2012-10-04 20:52:00
5:52 PM,69.1,46.9,45,30.20,10.0,WNW,6.9,-,N/A,,Clear,300,2012-10-04 21:52:00
6:52 PM,64.9,48.0,54,30.21,10.0,Calm,Calm,-,N/A,,Clear,0,2012-10-04 22:52:00
7:52 PM,63.0,48.0,58,30.21,10.0,West,3.5,-,N/A,,Clear,260,2012-10-04 23:52:00
9:52 PM,57.9,48.9,72,30.23,10.0,WSW,4.6,-,N/A,,Clear,240,2012-10-05 01:52:00
10:52 PM,59.0,48.0,67,30.23,10.0,WSW,3.5,-,N/A,,Clear,240,2012-10-05 02:52:00
11:52 PM,57.0,48.0,72,30.23,10.0,WSW,4.6,-,N/A,,Clear,250,2012-10-05 03:52:00